Location: Newark
(54.4000°N, 32.4500°E)
Time: 11:45:45
(UTC+00:00)

Envisat - Pass Details

Date: 20 January 2020
Orbit: 764 x 766 km, 98.1° (Epoch: 20 February)

Event Time Altitude Azimuth Distance (km) Brightness Sun altitude
Rises 15:35:21 0° 169° (S) 3,224 6.3 -12.6°
Reaches altitude 10° 15:37:40 10° 172° (S) 2,302 5.6 -12.9°
Maximum altitude 15:42:44 72° 256° (WSW) 811 3.3 -13.7°
Drops below altitude 10° 15:47:50 10° 342° (NNW) 2,318 5.5 -14.4°
Sets 15:50:10 0° 344° (NNW) 3,248 6.3 -14.7°
